Weather in Puerto Ayacucho

Venezuela     5°38′42″N   67°36′20″W
temp.,
°C
wind,
m/s
gust,
m/s
humid.,
%
clouds,
%
prec.,
mm/h
press.,
hPa
HPBL,
m
11 april, sun
sun1123:00+22sw009777 0.0 101111
02:00+22se119774 0.0 101015
05:00+22sse119862 0.0 101015
08:00+24s119033 0.1 1011213
11:00+30nnw1164100 0.4 10121094
14:00+30wnw1166100 2.7 1008995
17:00+28ese1183100 2.6 100787
20:00+25e1191100 5.4 100921
12 april, mon
mon1223:00+24se2293100 0.9 101130
02:00+23se31094100 6.0 1010420
05:00+22s2598100 1.1 1010222
08:00+22ssw2497100 1.3 1012189
11:00+24ssw2489100 0.3 1013486
14:00+27sw3373100 0.3 1011821
17:00+26sw2480100 0.0 1010641
20:00+23sw119198 0.0 101220
13 april, tue
tue1323:00+22sse1193100 0.0 101319
02:00+22sse1195100 0.0 101215
05:00+22sse1196100 0.0 101120
08:00+24s118636 0.0 1013250
11:00+29wsw216595 0.0 10141097
14:00+29wsw017399 3.5 1010489
17:00+25ese2389100 1.7 100961
20:00+24ese2290100 1.8 101134
14 april, wed
wed1423:00+23sse1194100 2.6 101314
02:00+23s119694 3.9 101131
05:00+22s1297100 0.1 101148
08:00+24s1291100 0.1 1013185
11:00+28sw1176100 2.9 1013493
14:00+30nw1167100 6.9 10101015
17:00+26ne118493 1.4 100815
20:00+23nne4998100 8.1 1011382
15 april, thu
thu1523:00+23e1298100 5.2 101379
02:00+23sse2398100 7.3 1010120
05:00+22s2698100 0.6 1011302
08:00+23s3795100 1.4 1013427
11:00+26ssw2380100 0.0 1013696
14:00+28wsw3371100 0.4 10101055
17:00+26sw2487100 2.6 1010409
20:00+23s1194100 4.4 101229